Weather History for KGHW - January, 2014

Change the Weather History Date:

Friday, January 3, 2014

  Actual Average Record
Temperature  
Mean Temperature 10 °F -  
Max Temperature 32 °F 21 °F 45 °F (1962)
Min Temperature -11 °F 1 °F -22 °F (1968)
Degree Days  
Heating Degree Days 56    
Moisture  
Dew Point 8 °F    
Average Humidity 84    
Maximum Humidity 100    
Minimum Humidity 65    
Precipitation  
Precipitation 0.00 in - - ()
Sea Level Pressure  
Sea Level Pressure 29.64 in    
Wind  
Wind Speed 17 mph (South)    
Max Wind Speed 28 mph    
Max Gust Speed 32 mph    
Visibility 6 miles    
Events Snow    
Averages and records for this station are not official NWS values.
T = Trace of Precipitation, MM = Missing Value Source: NWS Daily Summary

Daily Weather History Graph

Daily Weather History Graph

Search for Another Location

Airport or City:

Trip Planner

Search our weather history database for the weather conditions in past years. The results will help you decide how hot, cold, wet, or windy it might be!

Date:

Astronomy

Jan. 03, 2014 Rise Set
Actual Time 8:01 AM CST 4:50 PM CST
Civil Twilight 7:27 AM CST 5:24 PM CST
Nautical Twilight 6:50 AM CST 6:01 PM CST
Astronomical Twilight 6:14 AM CST 6:37 PM CST
Moon 9:19 AM CST (1/3) 8:10 PM CST (1/3)
Length of Visible Light 9h 56m
Length of Day
8h 48m
Waxing Crescent, 8% of the Moon is Illuminated
Jan 3
Waxing Crescent
Jan 7
First Quarter
Jan 15
Full
Jan 23
Last Quarter
Jan 30
New

Hourly Weather History & Observations

Time (CST) Temp. Windchill Dew Point Humidity Pressure Visibility Wind Dir Wind Speed Gust Speed Precip Events Conditions
12:13 AM -11.2 °F -30.1 °F -16.6 °F 77% 30.22 in 10.0 mi SSE 10.4 mph - N/A   Scattered Clouds
12:33 AM -9.4 °F -28.9 °F -14.8 °F 77% 30.20 in 10.0 mi South 11.5 mph - N/A   Scattered Clouds
12:53 AM -7.6 °F -26.6 °F -14.8 °F 71% 30.19 in 10.0 mi South 11.5 mph - N/A   Scattered Clouds
1:13 AM -7.6 °F -29.1 °F -14.8 °F 71% 30.15 in 10.0 mi SSE 15.0 mph - N/A   Scattered Clouds
1:33 AM -5.8 °F -26.8 °F -14.8 °F 65% 30.14 in 10.0 mi SSE 15.0 mph - N/A   Mostly Cloudy
1:53 AM -5.8 °F -26.0 °F -11.2 °F 77% 30.12 in 10.0 mi SSE 13.8 mph - N/A   Mostly Cloudy
2:13 AM -2.2 °F -19.9 °F -11.2 °F 66% 30.12 in 10.0 mi SSE 11.5 mph - N/A   Scattered Clouds
2:33 AM -2.2 °F -22.9 °F -9.4 °F 71% 30.10 in 10.0 mi SSE 16.1 mph - N/A   Mostly Cloudy
2:53 AM -0.4 °F -21.2 °F -9.4 °F 66% 30.08 in 10.0 mi SSE 17.3 mph - N/A   Overcast
3:13 AM -0.4 °F -21.7 °F -7.6 °F 72% 30.06 in 10.0 mi South 18.4 mph 25.3 mph N/A   Mostly Cloudy
3:33 AM -0.4 °F -22.8 °F -7.6 °F 72% 30.03 in 10.0 mi SSE 20.7 mph 25.3 mph N/A   Scattered Clouds
3:53 AM -0.4 °F -22.3 °F -7.6 °F 72% 30.01 in 10.0 mi SSE 19.6 mph 24.2 mph N/A   Scattered Clouds
4:13 AM 1.4 °F -18.2 °F -5.8 °F 72% 29.99 in 10.0 mi South 16.1 mph 24.2 mph N/A   Mostly Cloudy
4:33 AM 1.4 °F -18.2 °F -5.8 °F 72% 29.99 in 10.0 mi SSE 16.1 mph - N/A   Mostly Cloudy
4:53 AM 1.4 °F -18.8 °F -5.8 °F 72% 29.96 in 10.0 mi SSE 17.3 mph - N/A   Mostly Cloudy
5:14 AM 1.4 °F -22.3 °F -4.0 °F 78% 29.92 in 10.0 mi SSE 25.3 mph - N/A   Mostly Cloudy
5:33 AM 1.4 °F -19.4 °F -4.0 °F 78% 29.91 in 10.0 mi SSE 18.4 mph 24.2 mph N/A   Mostly Cloudy
5:53 AM 1.4 °F -20.5 °F -2.2 °F 85% 29.89 in 10.0 mi SSE 20.7 mph 31.1 mph N/A   Mostly Cloudy
6:14 AM 3.2 °F -18.1 °F -2.2 °F 78% 29.87 in 7.0 mi SSE 20.7 mph - N/A   Overcast
6:33 AM 3.2 °F -17.6 °F -2.2 °F 78% 29.85 in 10.0 mi SSE 19.6 mph 27.6 mph N/A   Overcast
6:53 AM 3.2 °F -19.0 °F -0.4 °F 85% 29.84 in 7.0 mi SSE 23.0 mph 27.6 mph N/A   Overcast
7:14 AM 3.2 °F -20.7 °F -0.4 °F 85% 29.81 in 4.0 mi SSE 27.6 mph - N/A   Overcast
7:33 AM 3.2 °F -19.0 °F 1.4 °F 92% 29.80 in 3.0 mi SSE 23.0 mph 28.8 mph N/A Snow Light Snow
7:53 AM 5.0 °F -16.7 °F 1.4 °F 85% 29.78 in 3.0 mi SSE 23.0 mph 26.5 mph N/A Snow Light Snow
8:14 AM 5.0 °F -16.7 °F 1.4 °F 85% 29.75 in 2.0 mi SSE 23.0 mph - N/A   Overcast
8:33 AM 6.8 °F - 1.4 °F 79% 29.75 in 1.8 mi Calm Calm 29.9 mph N/A Snow Light Snow
8:53 AM 6.8 °F -15.1 °F 3.2 °F 85% 29.73 in 1.8 mi SSE 25.3 mph 31.1 mph N/A Snow Light Snow
9:13 AM 6.8 °F -14.7 °F 3.2 °F 85% 29.71 in 2.0 mi SSE 24.2 mph - N/A Snow Light Snow
9:33 AM 8.6 °F -11.9 °F 3.2 °F 79% 29.69 in 2.5 mi SSE 23.0 mph 29.9 mph N/A   Overcast
9:53 AM 8.6 °F -12.3 °F 3.2 °F 79% 29.68 in 2.5 mi SSE 24.2 mph 31.1 mph N/A   Overcast
10:13 AM 8.6 °F -11.0 °F 5.0 °F 85% 29.67 in 2.5 mi SSE 20.7 mph - N/A   Overcast
10:33 AM 10.4 °F -8.6 °F 6.8 °F 85% 29.65 in 2.5 mi SSE 20.7 mph 26.5 mph N/A   Overcast
10:53 AM 10.4 °F -9.5 °F 6.8 °F 85% 29.64 in 1.5 mi South 23.0 mph 28.8 mph N/A   Overcast
11:13 AM 12.2 °F -8.2 °F 8.6 °F 85% 29.61 in 1.2 mi South 26.5 mph 32.2 mph N/A   Overcast
11:33 AM 12.2 °F -7.9 °F 8.6 °F 85% 29.59 in 1.2 mi South 25.3 mph 29.9 mph N/A   Overcast
11:53 AM 12.2 °F -7.5 °F 10.4 °F 92% 29.57 in 1.8 mi South 24.2 mph 31.1 mph N/A   Overcast
12:13 PM 14.0 °F - 10.4 °F 86% 29.55 in 1.8 mi Calm Calm - N/A   Overcast
12:33 PM 14.0 °F -5.1 °F 10.4 °F 86% 29.53 in 2.5 mi South 24.2 mph - N/A   Overcast
12:53 PM 14.0 °F -4.3 °F 10.4 °F 86% 29.52 in 3.0 mi South 21.9 mph 32.2 mph N/A   Overcast
1:13 PM 15.8 °F -1.9 °F 10.4 °F 79% 29.50 in 3.0 mi South 21.9 mph - N/A   Overcast
1:33 PM 15.8 °F -1.9 °F 12.2 °F 86% 29.49 in 2.5 mi South 21.9 mph - N/A   Overcast
1:53 PM 15.8 °F -3.1 °F 12.2 °F 86% 29.47 in 2.5 mi South 25.3 mph 32.2 mph N/A   Overcast
2:13 PM 15.8 °F -0.2 °F 12.2 °F 86% 29.46 in 4.0 mi South 17.3 mph 20.7 mph N/A   Overcast
2:33 PM 17.6 °F 0.5 °F 12.2 °F 79% 29.45 in 4.0 mi South 21.9 mph 26.5 mph N/A   Overcast
2:54 PM 17.6 °F 0.5 °F 14.0 °F 86% 29.44 in 3.0 mi South 21.9 mph 25.3 mph N/A   Overcast
3:13 PM 17.6 °F 0.9 °F 14.0 °F 86% 29.43 in 4.0 mi SSE 20.7 mph 25.3 mph N/A   Overcast
3:34 PM 17.6 °F 0.9 °F 15.8 °F 93% 29.42 in 5.0 mi South 20.7 mph - N/A   Mostly Cloudy
3:53 PM 17.6 °F 0.5 °F 15.8 °F 93% 29.42 in 4.0 mi South 21.9 mph - N/A   Mostly Cloudy
4:13 PM 17.6 °F 0.9 °F 15.8 °F 93% 29.41 in 4.0 mi South 20.7 mph - N/A   Scattered Clouds
4:34 PM 17.6 °F 0.9 °F 15.8 °F 93% 29.40 in 5.0 mi South 20.7 mph 25.3 mph N/A   Scattered Clouds
4:53 PM 19.4 °F 3.6 °F 15.8 °F 86% 29.41 in 7.0 mi South 19.6 mph 26.5 mph N/A   Scattered Clouds
5:13 PM 19.4 °F 4.1 °F 17.6 °F 93% 29.41 in 10.0 mi South 18.4 mph - N/A   Clear
5:33 PM 19.4 °F 2.8 °F 17.6 °F 93% 29.40 in 7.0 mi South 21.9 mph - N/A   Clear
5:53 PM 19.4 °F 4.5 °F 17.6 °F 93% 29.39 in 10.0 mi South 17.3 mph - N/A   Scattered Clouds
6:13 PM 21.2 °F 6.4 °F 17.6 °F 86% 29.38 in 10.0 mi South 18.4 mph - N/A   Overcast
6:34 PM 21.2 °F 7.3 °F 17.6 °F 86% 29.37 in 10.0 mi South 16.1 mph 21.9 mph N/A   Mostly Cloudy
6:53 PM 21.2 °F 6.0 °F 19.4 °F 93% 29.36 in 7.0 mi South 19.6 mph - N/A   Mostly Cloudy
7:13 PM 21.2 °F 6.8 °F 19.4 °F 93% 29.36 in 7.0 mi South 17.3 mph - N/A   Mostly Cloudy
7:34 PM 23.0 °F 10.1 °F 19.4 °F 86% 29.37 in 7.0 mi South 15.0 mph - N/A   Mostly Cloudy
7:53 PM 24.8 °F 12.9 °F 21.2 °F 86% 29.36 in 7.0 mi South 13.8 mph - N/A   Scattered Clouds
8:13 PM 24.8 °F 12.4 °F 21.2 °F 86% 29.35 in 7.0 mi South 15.0 mph - N/A   Mostly Cloudy
8:34 PM 26.6 °F 15.7 °F 24.8 °F 93% 29.37 in 5.0 mi South 12.7 mph - N/A   Mostly Cloudy
8:53 PM 26.6 °F 13.8 °F 24.8 °F 93% 29.34 in 7.0 mi South 17.3 mph - N/A   Mostly Cloudy
9:13 PM 26.6 °F 14.7 °F 24.8 °F 93% 29.34 in 7.0 mi South 15.0 mph - N/A   Scattered Clouds
9:34 PM 26.6 °F 13.1 °F 24.8 °F 93% 29.34 in 7.0 mi South 19.6 mph - N/A   Clear
9:53 PM 26.6 °F 13.4 °F 26.6 °F 100% 29.33 in 7.0 mi SSW 18.4 mph - N/A   Clear
10:13 PM 28.4 °F 16.2 °F 26.6 °F 93% 29.34 in 7.0 mi SSW 17.3 mph 25.3 mph N/A   Clear
10:34 PM 28.4 °F 16.6 °F 26.6 °F 93% 29.34 in 7.0 mi SW 16.1 mph - N/A   Clear
10:53 PM 28.4 °F 17.0 °F 26.6 °F 93% 29.32 in 7.0 mi SSW 15.0 mph - N/A   Clear
11:13 PM 28.4 °F 18.0 °F 26.6 °F 93% 29.31 in 7.0 mi SW 12.7 mph - N/A   Clear
11:34 PM 30.2 °F 20.2 °F 28.4 °F 93% 29.33 in 10.0 mi SW 12.7 mph - N/A   Scattered Clouds
11:53 PM 32.0 °F 21.2 °F 28.4 °F 87% 29.35 in 10.0 mi WSW 16.1 mph - N/A   Overcast